Location: *
(13.2257°S, 48.7193°W)
Time: 23:54:19
(UTC+00:00)

SL-16 R/B - Pass Details

Date: 27 May 2026
Orbit: 984 x 1007 km, 99.8° (Epoch: 7 June)

Event Time Altitude Azimuth Distance (km) Brightness Sun altitude
Rises 07:46:54 0° 164° (SSE) 3,746 5.5 -24.4°
Reaches altitude 10° 07:49:23 10° 163° (SSE) 2,792 4.9 -23.8°
Maximum altitude 07:55:41 78° 77° (ENE) 1,031 2.7 -22.3°
Drops below altitude 10° 08:01:54 10° 350° (N) 2,765 5.0 -20.9°
Sets 08:04:22 0° 349° (N) 3,707 5.6 -20.3°
